Terminal Aerodrome Forecast
Issued by NWS

Home | Current Version | Previous Version | Text Only | Print | Product List | Glossary On
Versions: 1 2 3 4 5 6 7 8 9 10 11 12 13 14 15
000
FTUS45 KRIW 071123
TAFRKS
TAF
KRKS 071123Z 0712/0812 06006KT 4SM BR SCT035 BKN060
     FM071500 VRB05KT P6SM SCT070 BKN100
     FM072100 VRB10G20KT P6SM VCTS BKN070CB
     FM080400 10007KT P6SM VCSH SCT050 BKN100=

USA.gov is the U.S. government's official web portal to all federal, state and local government web resources and services.